TimeMDT,TemperatureF,Dew PointF,Humidity,Sea Level PressureIn,VisibilityMPH,Wind Direction,Wind SpeedMPH,Gust SpeedMPH,PrecipitationIn,Events,Conditions,WindDirDegrees,DateUTC
1:53 AM,33.1,21.0,61,30.01,10.0,Calm,Calm,-,N/A,,Clear,0,2013-04-26 07:53:00
2:53 AM,33.1,21.9,64,30.01,10.0,Calm,Calm,-,N/A,,Clear,0,2013-04-26 08:53:00
3:53 AM,28.0,19.9,72,30.05,10.0,Calm,Calm,-,N/A,,Clear,0,2013-04-26 09:53:00
4:53 AM,27.0,21.0,78,30.07,10.0,NW,3.5,-,N/A,,Clear,310,2013-04-26 10:53:00
5:53 AM,25.0,21.0,85,30.11,10.0,North,4.6,-,N/A,,Clear,360,2013-04-26 11:53:00
6:53 AM,30.9,24.1,76,30.12,10.0,NNW,5.8,-,N/A,,Clear,340,2013-04-26 12:53:00
7:53 AM,36.0,25.0,64,30.15,10.0,NW,3.5,-,N/A,,Clear,320,2013-04-26 13:53:00
8:53 AM,45.0,26.1,48,30.15,10.0,NNW,4.6,-,N/A,,Clear,330,2013-04-26 14:53:00
9:53 AM,52.0,25.0,35,30.14,10.0,NNW,3.5,-,N/A,,Clear,330,2013-04-26 15:53:00
10:53 AM,61.0,21.9,22,30.14,10.0,NW,8.1,-,N/A,,Clear,310,2013-04-26 16:53:00
11:53 AM,64.9,16.0,15,30.12,10.0,NW,8.1,16.1,N/A,,Clear,310,2013-04-26 17:53:00
12:53 PM,66.9,16.0,14,30.13,10.0,WNW,10.4,-,N/A,,Clear,300,2013-04-26 18:53:00
1:53 PM,68.0,14.0,12,30.10,10.0,WSW,8.1,20.7,N/A,,Scattered Clouds,250,2013-04-26 19:53:00
2:53 PM,66.9,15.1,14,30.11,10.0,South,4.6,-,N/A,,Mostly Cloudy,190,2013-04-26 20:53:00
3:53 PM,66.0,14.0,13,30.12,10.0,Variable,3.5,-,N/A,,Scattered Clouds,0,2013-04-26 21:53:00
4:53 PM,68.0,16.0,14,30.11,10.0,WSW,12.7,-,N/A,,Scattered Clouds,240,2013-04-26 22:53:00
5:53 PM,66.9,17.1,15,30.12,10.0,West,10.4,-,N/A,,Partly Cloudy,260,2013-04-26 23:53:00
6:53 PM,64.0,18.0,17,30.10,10.0,SW,10.4,-,N/A,,Clear,230,2013-04-27 00:53:00
7:53 PM,55.9,21.9,27,30.12,10.0,SSW,9.2,-,N/A,,Clear,210,2013-04-27 01:53:00
8:53 PM,50.0,25.0,38,30.12,10.0,South,6.9,-,N/A,,Clear,180,2013-04-27 02:53:00
9:53 PM,44.1,25.0,47,30.12,10.0,SSE,4.6,-,N/A,,Clear,150,2013-04-27 03:53:00
10:53 PM,46.0,24.1,42,30.09,10.0,Calm,Calm,-,N/A,,Clear,0,2013-04-27 04:53:00
11:53 PM,39.0,26.1,60,30.10,10.0,Calm,Calm,-,N/A,,Clear,0,2013-04-27 05:53:00